Showing default

OV1-13, 3173

Orbit data source: Space-Track

OV1-13, 3173 is a payload satellite owned by USAF OAR (US) that was launched on Sat, 06 Apr 1968 UTC via an ATLAS F launch vehicle from the Air Force Western Test Range (AFWTR). Payload-class satellites include a variety of spacecraft equipped with specific instruments for various scientific and technological missions. These include communications satellites like Starlink; space stations such as the ISS; scientific satellites like the Hubble; Earth observation satellites from companies like Planet Labs, Umbra, and HawkEye 360; GPS; miniature CubeSats for education and research; and military/defense satellites.

Loading next visibility...
Identifier
3173, 1968-026A
Orbit
Active
Country
Flag of USUS
Related business
Manufacturer
GD/Convair
Mission
Spacecraft
Bus & Motor
OV1, Unknown motor
Mass
107 kg wet, 107 kg dry
Launch date (UTC)
1968-04-06 (58 years ago)
Launch vehicle
ATLAS F
Launch site
Air Force Western Test Range (AFWTR)
Object type
Payload
Rocket body
Debris
Shape & HBR
Unknown
Radar Cross Section
Medium (>0.1 m² and <1 m²)

Expand to show TLE details & history
Last TLE update: 1 day ago

TLE from 1 day ago
0 OV1-13
1 03173U 68026A   25310.46770975  .00000121  00000-0  16955-3 0  9995
2 03173  99.9313 322.4834 3851398 110.2450 294.7286  7.25773053522046
Epoch: 2025-11-06T11:13Z
TLE epoch observation values (Epoch: 2025-11-06T11:13:30.122Z)
Latitude
0.00007°
Longitude
108.18228°
Altitude
4,689.609 km
Speed
6.056 km/s
True Right ascension
21h 29m 56s
True Declination
0° 00' 00"
Sunlit
Object was in daylight at epoch
Visualization orbit readout
Latitude
Unknown
Longitude
Unknown
Altitude
Unknown
Speed
Unknown
Apparent Right ascension
Unknown
Apparent Declination
Unknown
Sunlit
N/A
Visualization observer readout
Local Sidereal Time
19:05:50
Azimuth
Unknown
Elevation
Unknown
Doppler factor
Unknown
Orbital elements
Apogee altitude
9,227.25 km
Perigee altitude
549.057 km
Semi-major axis
11,266.291 km
Eccentricity
0.38514
Inclination
99.9313°
RAAN
322.4834°
Arg. of periapsis
110.245°
True anomaly
249.84898°
Mean anomaly
294.7286°
Eccentric anomaly
272.68596°
Mean motion
1.81498 °/min
Orbital period
198.35 mins
BSTAR
0.00016955
Loading maneuver chart data...
Computing Atmospheric mass density...
Loading historical data...
Loading historical data...
Loading historical data...
Loading historical data...
Loading historical data...
Loading historical data...
Loading historical data...
Other satellites on launch #26 in the year 1968 (1968-04-06 UTC)

Documentation

Showing up to 5 results
|